Time,TemperatureF,DewpointF,PressureIn,WindDirection,WindDirectionDegrees,WindSpeedMPH,WindSpeedGustMPH,Humidity,HourlyPrecipIn,Conditions,Clouds,dailyrainin,SoftwareType,DateUTC
2013-06-04 00:02:00,64.0,57.7,30.03,NW,315,0.0,0.0,80,0.00,,,0.00,WUHU21623XXSP,2013-06-04 04:02:00,
2013-06-04 00:07:00,64.0,57.7,30.03,NW,315,0.0,0.0,80,0.00,,,0.00,WUHU21623XXSP,2013-06-04 04:07:00,
2013-06-04 00:12:00,63.7,57.4,30.03,NW,315,0.0,0.0,80,0.00,,,0.00,WUHU21623XXSP,2013-06-04 04:12:00,
2013-06-04 00:17:00,63.7,57.4,30.03,NW,315,0.0,0.0,80,0.00,,,0.00,WUHU21623XXSP,2013-06-04 04:17:00,
2013-06-04 00:22:00,63.5,57.2,30.03,NW,315,0.0,0.0,80,0.00,,,0.00,WUHU21623XXSP,2013-06-04 04:22:00,
2013-06-04 00:27:00,63.5,57.2,30.03,NW,315,0.0,0.0,80,0.00,,,0.00,WUHU21623XXSP,2013-06-04 04:27:00,
2013-06-04 00:32:00,63.3,57.4,30.03,NW,315,0.0,0.0,81,0.00,,,0.00,WUHU21623XXSP,2013-06-04 04:32:00,
2013-06-04 00:37:00,63.1,57.2,30.03,NW,315,0.0,0.0,81,0.00,,,0.00,WUHU21623XXSP,2013-06-04 04:37:00,
2013-06-04 00:42:00,63.1,57.2,30.03,NW,315,0.0,0.0,81,0.00,,,0.00,WUHU21623XXSP,2013-06-04 04:42:00,
2013-06-04 00:47:00,63.0,57.0,30.03,NW,315,0.0,0.0,81,0.00,,,0.00,WUHU21623XXSP,2013-06-04 04:47:00,
2013-06-04 00:52:00,62.8,57.2,30.03,NW,315,0.0,0.0,82,0.00,,,0.00,WUHU21623XXSP,2013-06-04 04:52:00,
2013-06-04 00:57:00,62.8,57.2,30.03,NW,315,0.0,0.0,82,0.00,,,0.00,WUHU21623XXSP,2013-06-04 04:57:00,
2013-06-04 01:02:00,62.8,57.2,30.03,NW,315,0.0,0.0,82,0.00,,,0.00,WUHU21623XXSP,2013-06-04 05:02:00,
2013-06-04 01:07:00,62.4,56.8,30.03,NW,315,0.0,0.0,82,0.00,,,0.00,WUHU21623XXSP,2013-06-04 05:07:00,
2013-06-04 01:12:00,62.4,56.8,30.03,NW,315,0.0,0.0,82,0.00,,,0.00,WUHU21623XXSP,2013-06-04 05:12:00,
2013-06-04 01:17:00,62.4,56.8,30.03,NW,315,0.0,0.0,82,0.00,,,0.00,WUHU21623XXSP,2013-06-04 05:17:00,
2013-06-04 01:22:00,62.4,56.8,30.03,NW,315,0.0,0.0,82,0.00,,,0.00,WUHU21623XXSP,2013-06-04 05:22:00,
2013-06-04 01:28:00,62.2,57.0,30.03,NW,315,0.0,0.0,83,0.00,,,0.00,WUHU21623XXSP,2013-06-04 05:28:00,
2013-06-04 01:33:00,62.2,57.0,30.03,NW,315,0.0,0.0,83,0.00,,,0.00,WUHU21623XXSP,2013-06-04 05:33:00,
2013-06-04 01:38:00,62.2,57.0,30.03,NW,315,0.0,0.0,83,0.00,,,0.00,WUHU21623XXSP,2013-06-04 05:38:00,
2013-06-04 01:43:00,61.9,57.0,30.03,NW,315,0.0,0.0,84,0.00,,,0.00,WUHU21623XXSP,2013-06-04 05:43:00,
2013-06-04 01:48:00,61.9,57.0,30.03,NW,315,0.0,0.0,84,0.00,,,0.00,WUHU21623XXSP,2013-06-04 05:48:00,
2013-06-04 01:53:00,61.9,57.0,30.02,NW,315,0.0,0.0,84,0.00,,,0.00,WUHU21623XXSP,2013-06-04 05:53:00,
2013-06-04 01:58:00,61.9,57.0,30.03,NW,315,0.0,0.0,84,0.00,,,0.00,WUHU21623XXSP,2013-06-04 05:58:00,
2013-06-04 02:03:00,61.7,56.8,30.03,NW,315,0.0,0.0,84,0.00,,,0.00,WUHU21623XXSP,2013-06-04 06:03:00,
2013-06-04 02:08:00,61.5,56.3,30.03,NW,315,0.0,0.0,83,0.00,,,0.00,WUHU21623XXSP,2013-06-04 06:08:00,
2013-06-04 02:13:00,61.3,56.5,30.03,NW,315,0.0,0.0,84,0.00,,,0.00,WUHU21623XXSP,2013-06-04 06:13:00,
2013-06-04 02:18:00,61.2,56.3,30.03,NW,315,0.0,0.0,84,0.00,,,0.00,WUHU21623XXSP,2013-06-04 06:18:00,
2013-06-04 02:23:00,61.2,56.3,30.03,NW,315,0.0,0.0,84,0.00,,,0.00,WUHU21623XXSP,2013-06-04 06:23:00,
2013-06-04 02:28:00,61.0,56.1,30.02,NW,315,0.0,0.0,84,0.00,,,0.00,WUHU21623XXSP,2013-06-04 06:28:00,
2013-06-04 02:33:00,61.0,56.1,30.02,NW,315,0.0,0.0,84,0.00,,,0.00,WUHU21623XXSP,2013-06-04 06:33:00,
2013-06-04 02:38:00,61.0,56.6,30.02,NW,315,0.0,0.0,85,0.00,,,0.00,WUHU21623XXSP,2013-06-04 06:38:00,
2013-06-04 02:43:00,61.0,56.5,30.02,NW,315,0.0,0.0,85,0.00,,,0.00,WUHU21623XXSP,2013-06-04 06:43:00,
2013-06-04 02:48:00,61.0,56.5,30.02,NW,315,0.0,0.0,85,0.00,,,0.00,WUHU21623XXSP,2013-06-04 06:48:00,
2013-06-04 02:53:00,61.0,56.5,30.02,NW,315,0.0,0.0,85,0.00,,,0.00,WUHU21623XXSP,2013-06-04 06:53:00,
2013-06-04 02:58:00,61.0,56.1,30.02,NW,315,0.0,0.0,84,0.00,,,0.00,WUHU21623XXSP,2013-06-04 06:58:00,
2013-06-04 03:03:00,60.8,56.0,30.02,NW,315,0.0,0.0,84,0.00,,,0.00,WUHU21623XXSP,2013-06-04 07:03:00,
2013-06-04 03:08:00,60.6,55.8,30.02,NW,315,0.0,0.0,84,0.00,,,0.00,WUHU21623XXSP,2013-06-04 07:08:00,
2013-06-04 03:13:00,60.6,55.8,30.02,NW,315,0.0,0.0,84,0.00,,,0.00,WUHU21623XXSP,2013-06-04 07:13:00,
2013-06-04 03:18:00,60.4,55.6,30.02,NW,315,0.0,0.0,84,0.00,,,0.00,WUHU21623XXSP,2013-06-04 07:18:00,
2013-06-04 03:23:00,60.4,55.6,30.02,NW,315,0.0,0.0,84,0.00,,,0.00,WUHU21623XXSP,2013-06-04 07:23:00,
2013-06-04 03:28:00,60.4,55.6,30.02,NW,315,0.0,0.0,84,0.00,,,0.00,WUHU21623XXSP,2013-06-04 07:28:00,
2013-06-04 03:33:00,60.4,55.9,30.02,NW,315,0.0,0.0,85,0.00,,,0.00,WUHU21623XXSP,2013-06-04 07:33:00,
2013-06-04 03:38:00,60.1,55.6,30.02,NW,315,0.0,0.0,85,0.00,,,0.00,WUHU21623XXSP,2013-06-04 07:38:00,
2013-06-04 03:43:00,60.1,55.6,30.02,NW,315,0.0,0.0,85,0.00,,,0.00,WUHU21623XXSP,2013-06-04 07:43:00,
2013-06-04 03:48:00,60.1,55.6,30.02,NW,315,0.0,0.0,85,0.00,,,0.00,WUHU21623XXSP,2013-06-04 07:48:00,
2013-06-04 03:53:00,60.1,55.6,30.02,NW,315,0.0,0.0,85,0.00,,,0.00,WUHU21623XXSP,2013-06-04 07:53:00,
2013-06-04 03:58:00,59.9,55.4,30.02,NW,315,0.0,0.0,85,0.00,,,0.00,WUHU21623XXSP,2013-06-04 07:58:00,
2013-06-04 04:03:00,59.9,55.4,30.02,NW,315,0.0,0.0,85,0.00,,,0.00,WUHU21623XXSP,2013-06-04 08:03:00,
2013-06-04 04:08:00,59.9,55.4,30.02,NW,315,0.0,0.0,85,0.00,,,0.00,WUHU21623XXSP,2013-06-04 08:08:00,
2013-06-04 04:13:00,60.1,55.9,30.02,NW,315,0.0,0.0,86,0.00,,,0.00,WUHU21623XXSP,2013-06-04 08:13:00,
2013-06-04 04:18:00,59.9,55.7,30.02,NW,315,0.0,0.0,86,0.00,,,0.00,WUHU21623XXSP,2013-06-04 08:18:00,
2013-06-04 04:23:00,59.9,55.7,30.02,NW,315,0.0,0.0,86,0.00,,,0.00,WUHU21623XXSP,2013-06-04 08:23:00,
2013-06-04 04:28:00,59.9,55.7,30.02,NW,315,0.0,0.0,86,0.00,,,0.00,WUHU21623XXSP,2013-06-04 08:28:00,
2013-06-04 04:33:00,59.9,55.7,30.02,NW,315,0.0,0.0,86,0.00,,,0.00,WUHU21623XXSP,2013-06-04 08:33:00,
2013-06-04 04:38:00,60.1,55.7,30.02,NW,315,0.0,0.0,86,0.00,,,0.00,WUHU21623XXSP,2013-06-04 08:38:00,
2013-06-04 04:43:00,59.9,55.7,30.02,NW,315,0.0,0.0,86,0.00,,,0.00,WUHU21623XXSP,2013-06-04 08:43:00,
2013-06-04 04:48:00,59.9,55.7,30.02,NW,315,0.0,0.0,86,0.00,,,0.00,WUHU21623XXSP,2013-06-04 08:48:00,
2013-06-04 04:53:00,59.9,55.7,30.02,NW,315,0.0,0.0,86,0.00,,,0.00,WUHU21623XXSP,2013-06-04 08:53:00,
2013-06-04 04:58:00,59.9,55.7,30.03,NW,315,0.0,0.0,86,0.00,,,0.00,WUHU21623XXSP,2013-06-04 08:58:00,
2013-06-04 05:03:00,59.9,55.7,30.03,NW,315,0.0,0.0,86,0.00,,,0.00,WUHU21623XXSP,2013-06-04 09:03:00,
2013-06-04 05:08:00,59.9,55.7,30.03,NW,315,0.0,0.0,86,0.00,,,0.00,WUHU21623XXSP,2013-06-04 09:08:00,
2013-06-04 05:13:00,59.7,55.5,30.03,NW,315,0.0,0.0,86,0.00,,,0.00,WUHU21623XXSP,2013-06-04 09:13:00,
2013-06-04 05:18:00,59.7,55.5,30.03,NW,315,0.0,0.0,86,0.00,,,0.00,WUHU21623XXSP,2013-06-04 09:18:00,
2013-06-04 05:23:00,59.5,55.4,30.03,NW,315,0.0,0.0,86,0.00,,,0.00,WUHU21623XXSP,2013-06-04 09:23:00,
2013-06-04 05:28:00,59.5,55.4,30.04,NW,315,0.0,0.0,86,0.00,,,0.00,WUHU21623XXSP,2013-06-04 09:28:00,
2013-06-04 05:33:00,59.4,55.2,30.03,NW,315,0.0,0.0,86,0.00,,,0.00,WUHU21623XXSP,2013-06-04 09:33:00,
2013-06-04 05:38:00,59.2,55.0,30.04,NW,315,0.0,0.0,86,0.00,,,0.00,WUHU21623XXSP,2013-06-04 09:38:00,
2013-06-04 05:43:00,59.0,55.0,30.04,NW,315,0.0,0.0,87,0.00,,,0.00,WUHU21623XXSP,2013-06-04 09:43:00,
2013-06-04 05:48:00,58.8,55.0,30.04,NW,315,0.0,0.0,87,0.00,,,0.00,WUHU21623XXSP,2013-06-04 09:48:00,
2013-06-04 05:53:00,58.8,55.0,30.04,NW,315,0.0,0.0,87,0.00,,,0.00,WUHU21623XXSP,2013-06-04 09:53:00,
2013-06-04 05:58:00,58.8,55.0,30.04,NW,315,0.0,0.0,87,0.00,,,0.00,WUHU21623XXSP,2013-06-04 09:58:00,
2013-06-04 06:03:00,58.8,55.0,30.04,NW,315,0.0,0.0,87,0.00,,,0.00,WUHU21623XXSP,2013-06-04 10:03:00,
2013-06-04 06:08:00,58.6,54.5,30.04,NW,315,0.0,0.0,86,0.00,,,0.00,WUHU21623XXSP,2013-06-04 10:08:00,
2013-06-04 06:13:00,58.6,54.5,30.05,NW,315,0.0,0.0,86,0.00,,,0.00,WUHU21623XXSP,2013-06-04 10:13:00,
2013-06-04 06:18:00,58.5,54.3,30.05,NW,315,0.0,0.0,86,0.00,,,0.00,WUHU21623XXSP,2013-06-04 10:18:00,
2013-06-04 06:23:00,58.3,54.1,30.05,NW,315,0.0,0.0,86,0.00,,,0.00,WUHU21623XXSP,2013-06-04 10:23:00,
2013-06-04 06:28:00,58.1,53.9,30.05,NW,315,0.0,0.0,86,0.00,,,0.00,WUHU21623XXSP,2013-06-04 10:28:00,
2013-06-04 06:33:00,57.9,54.1,30.05,NW,315,0.0,0.0,87,0.00,,,0.00,WUHU21623XXSP,2013-06-04 10:33:00,
2013-06-04 06:38:00,57.9,54.1,30.05,NW,315,0.0,0.0,87,0.00,,,0.00,WUHU21623XXSP,2013-06-04 10:38:00,
2013-06-04 06:43:00,57.9,54.1,30.05,NW,315,0.0,0.0,87,0.00,,,0.00,WUHU21623XXSP,2013-06-04 10:43:00,
2013-06-04 06:48:00,57.9,54.1,30.05,NW,315,0.0,0.0,87,0.00,,,0.00,WUHU21623XXSP,2013-06-04 10:48:00,
2013-06-04 06:53:00,57.9,54.1,30.06,NW,315,0.0,0.0,87,0.00,,,0.00,WUHU21623XXSP,2013-06-04 10:53:00,
2013-06-04 06:58:00,57.9,54.1,30.05,NW,315,0.0,0.0,87,0.00,,,0.00,WUHU21623XXSP,2013-06-04 10:58:00,
2013-06-04 07:03:00,57.9,54.1,30.06,NW,315,0.0,0.0,87,0.00,,,0.00,WUHU21623XXSP,2013-06-04 11:03:00,
2013-06-04 07:08:00,57.9,54.1,30.06,NW,315,0.0,0.0,87,0.00,,,0.00,WUHU21623XXSP,2013-06-04 11:08:00,
2013-06-04 07:13:00,58.1,54.2,30.06,NW,315,0.0,0.0,87,0.00,,,0.00,WUHU21623XXSP,2013-06-04 11:13:00,
2013-06-04 07:19:00,58.3,54.4,30.06,NW,315,0.0,0.0,87,0.00,,,0.00,WUHU21623XXSP,2013-06-04 11:19:00,
2013-06-04 07:24:00,58.6,54.8,30.06,NW,315,0.0,0.0,87,0.00,,,0.00,WUHU21623XXSP,2013-06-04 11:24:00,
2013-06-04 07:29:00,58.8,54.8,30.06,NW,315,0.0,0.0,87,0.00,,,0.00,WUHU21623XXSP,2013-06-04 11:29:00,
2013-06-04 07:34:00,58.8,55.0,30.06,NW,315,0.0,0.0,87,0.00,,,0.00,WUHU21623XXSP,2013-06-04 11:34:00,
2013-06-04 07:39:00,58.8,55.0,30.06,NW,315,0.0,0.0,87,0.00,,,0.00,WUHU21623XXSP,2013-06-04 11:39:00,
2013-06-04 07:44:00,58.8,55.0,30.07,NW,315,0.0,0.0,87,0.00,,,0.00,WUHU21623XXSP,2013-06-04 11:44:00,
2013-06-04 07:49:00,58.8,55.0,30.07,NW,315,0.0,0.0,87,0.00,,,0.00,WUHU21623XXSP,2013-06-04 11:49:00,
2013-06-04 07:54:00,59.2,55.3,30.07,NW,315,0.0,0.0,87,0.00,,,0.00,WUHU21623XXSP,2013-06-04 11:54:00,
2013-06-04 07:59:00,59.4,55.5,30.06,NW,315,0.0,0.0,87,0.00,,,0.00,WUHU21623XXSP,2013-06-04 11:59:00,
2013-06-04 08:04:00,59.5,55.7,30.06,NW,315,0.0,0.0,87,0.00,,,0.00,WUHU21623XXSP,2013-06-04 12:04:00,
2013-06-04 08:09:00,59.7,55.9,30.06,NW,315,0.0,0.0,87,0.00,,,0.00,WUHU21623XXSP,2013-06-04 12:09:00,
2013-06-04 08:14:00,59.9,56.0,30.06,NW,315,0.0,0.0,87,0.00,,,0.00,WUHU21623XXSP,2013-06-04 12:14:00,
2013-06-04 08:19:00,60.4,56.4,30.06,NW,315,0.0,0.0,87,0.00,,,0.00,WUHU21623XXSP,2013-06-04 12:19:00,
2013-06-04 08:24:00,60.4,56.6,30.07,NW,315,0.0,0.0,87,0.00,,,0.00,WUHU21623XXSP,2013-06-04 12:24:00,
2013-06-04 08:29:00,60.6,56.8,30.06,NW,315,0.0,0.0,87,0.00,,,0.00,WUHU21623XXSP,2013-06-04 12:29:00,
2013-06-04 08:34:00,61.0,57.1,30.07,NW,315,0.0,0.0,87,0.00,,,0.00,WUHU21623XXSP,2013-06-04 12:34:00,
2013-06-04 08:39:00,61.0,57.1,30.07,NW,315,0.0,0.0,87,0.00,,,0.00,WUHU21623XXSP,2013-06-04 12:39:00,
2013-06-04 08:44:00,61.0,57.1,30.07,NW,315,0.0,0.0,87,0.00,,,0.00,WUHU21623XXSP,2013-06-04 12:44:00,
2013-06-04 08:49:00,61.2,57.3,30.07,NW,315,0.0,0.0,87,0.00,,,0.00,WUHU21623XXSP,2013-06-04 12:49:00,
2013-06-04 08:54:00,61.5,57.6,30.07,NW,315,0.0,0.0,87,0.00,,,0.00,WUHU21623XXSP,2013-06-04 12:54:00,
2013-06-04 08:59:00,61.9,58.0,30.07,NW,315,0.0,0.0,87,0.00,,,0.00,WUHU21623XXSP,2013-06-04 12:59:00,
2013-06-04 09:04:00,62.4,58.2,30.07,NW,315,0.0,0.0,86,0.00,,,0.00,WUHU21623XXSP,2013-06-04 13:04:00,
2013-06-04 09:09:00,62.6,58.4,30.07,NW,315,0.0,0.0,86,0.00,,,0.00,WUHU21623XXSP,2013-06-04 13:09:00,
2013-06-04 09:14:00,63.0,58.5,30.07,NW,315,0.0,0.0,86,0.00,,,0.00,WUHU21623XXSP,2013-06-04 13:14:00,
2013-06-04 09:19:00,63.3,58.9,30.07,NW,315,0.0,0.0,86,0.00,,,0.00,WUHU21623XXSP,2013-06-04 13:19:00,
2013-06-04 09:24:00,63.5,59.3,30.07,NW,315,0.0,0.0,86,0.00,,,0.00,WUHU21623XXSP,2013-06-04 13:24:00,
2013-06-04 09:29:00,63.7,59.4,30.07,NW,315,0.0,0.0,86,0.00,,,0.00,WUHU21623XXSP,2013-06-04 13:29:00,
2013-06-04 09:34:00,64.6,60.0,30.07,NW,315,0.0,0.0,86,0.00,,,0.00,WUHU21623XXSP,2013-06-04 13:34:00,
2013-06-04 09:39:00,64.8,60.2,30.07,NW,315,0.0,0.0,85,0.00,,,0.00,WUHU21623XXSP,2013-06-04 13:39:00,
2013-06-04 09:44:00,64.9,60.3,30.07,NW,315,0.0,0.0,85,0.00,,,0.00,WUHU21623XXSP,2013-06-04 13:44:00,
2013-06-04 09:49:00,65.3,60.7,30.07,NW,315,0.0,0.0,85,0.00,,,0.00,WUHU21623XXSP,2013-06-04 13:49:00,
2013-06-04 09:54:00,66.2,61.5,30.07,NW,315,0.0,0.0,86,0.00,,,0.00,WUHU21623XXSP,2013-06-04 13:54:00,
2013-06-04 09:59:00,66.7,61.7,30.07,NW,315,0.0,0.0,84,0.00,,,0.00,WUHU21623XXSP,2013-06-04 13:59:00,
2013-06-04 10:04:00,67.3,62.0,30.07,NW,315,0.0,0.0,83,0.00,,,0.00,WUHU21623XXSP,2013-06-04 14:04:00,
2013-06-04 10:09:00,67.3,62.0,30.07,NW,315,0.0,0.0,83,0.00,,,0.00,WUHU21623XXSP,2013-06-04 14:09:00,
2013-06-04 10:14:00,67.6,62.3,30.07,NW,315,0.0,0.0,83,0.00,,,0.00,WUHU21623XXSP,2013-06-04 14:14:00,
2013-06-04 10:19:00,68.2,62.8,30.07,NW,315,0.0,0.0,83,0.00,,,0.00,WUHU21623XXSP,2013-06-04 14:19:00,
2013-06-04 10:24:00,69.1,63.7,30.07,NW,315,0.0,0.0,83,0.00,,,0.00,WUHU21623XXSP,2013-06-04 14:24:00,
2013-06-04 10:29:00,70.9,64.4,30.08,NNW,337,0.0,0.0,80,0.00,,,0.00,WUHU21623XXSP,2013-06-04 14:29:00,
2013-06-04 10:34:00,71.8,64.5,30.08,North,0,0.0,0.0,78,0.00,,,0.00,WUHU21623XXSP,2013-06-04 14:34:00,
2013-06-04 10:39:00,72.5,64.5,30.08,North,0,0.0,0.0,76,0.00,,,0.00,WUHU21623XXSP,2013-06-04 14:39:00,
2013-06-04 10:44:00,73.4,63.5,30.08,North,0,0.0,0.0,71,0.00,,,0.00,WUHU21623XXSP,2013-06-04 14:44:00,
2013-06-04 10:49:00,73.9,64.8,30.08,North,0,0.0,0.0,73,0.00,,,0.00,WUHU21623XXSP,2013-06-04 14:49:00,
2013-06-04 10:54:00,74.1,64.5,30.08,North,0,0.0,0.0,72,0.00,,,0.00,WUHU21623XXSP,2013-06-04 14:54:00,
2013-06-04 10:59:00,75.4,65.3,30.07,NNE,22,0.0,0.0,71,0.00,,,0.00,WUHU21623XXSP,2013-06-04 14:59:00,
2013-06-04 11:04:00,76.1,66.0,30.07,NNE,22,0.0,0.0,71,0.00,,,0.00,WUHU21623XXSP,2013-06-04 15:04:00,
2013-06-04 11:09:00,76.8,66.8,30.07,NNE,22,0.0,0.0,71,0.00,,,0.00,WUHU21623XXSP,2013-06-04 15:09:00,
2013-06-04 11:15:00,78.1,67.5,30.07,North,0,0.0,0.0,70,0.00,,,0.00,WUHU21623XXSP,2013-06-04 15:15:00,
2013-06-04 11:20:00,78.8,66.9,30.07,NNE,22,0.0,0.0,67,0.00,,,0.00,WUHU21623XXSP,2013-06-04 15:20:00,
2013-06-04 11:25:00,79.5,66.7,30.07,North,0,0.0,0.0,65,0.00,,,0.00,WUHU21623XXSP,2013-06-04 15:25:00,
2013-06-04 11:30:00,80.4,66.2,30.08,NW,315,0.0,0.0,62,0.00,,,0.00,WUHU21623XXSP,2013-06-04 15:30:00,
2013-06-04 11:35:00,81.1,67.3,30.08,NW,315,0.0,0.0,63,0.00,,,0.00,WUHU21623XXSP,2013-06-04 15:35:00,
2013-06-04 11:40:00,82.0,66.8,30.08,NW,315,0.0,0.0,60,0.00,,,0.00,WUHU21623XXSP,2013-06-04 15:40:00,
2013-06-04 11:45:00,82.9,66.1,30.07,NW,315,0.0,0.0,57,0.00,,,0.00,WUHU21623XXSP,2013-06-04 15:45:00,
2013-06-04 11:50:00,83.3,65.9,30.08,WNW,292,0.0,0.0,56,0.00,,,0.00,WUHU21623XXSP,2013-06-04 15:50:00,
2013-06-04 11:55:00,83.5,65.6,30.08,WNW,292,0.0,0.0,55,0.00,,,0.00,WUHU21623XXSP,2013-06-04 15:55:00,
2013-06-04 12:00:00,84.4,65.9,30.07,WNW,292,0.0,0.0,54,0.00,,,0.00,WUHU21623XXSP,2013-06-04 16:00:00,
2013-06-04 12:05:00,84.7,65.7,30.07,WNW,292,0.0,0.0,53,0.00,,,0.00,WUHU21623XXSP,2013-06-04 16:05:00,
2013-06-04 12:10:00,85.3,66.2,30.07,WNW,292,0.0,0.0,53,0.00,,,0.00,WUHU21623XXSP,2013-06-04 16:10:00,
2013-06-04 12:15:00,86.0,66.3,30.07,WNW,292,0.0,0.0,52,0.00,,,0.00,WUHU21623XXSP,2013-06-04 16:15:00,
2013-06-04 12:20:00,86.5,66.7,30.07,NW,315,0.0,0.0,52,0.00,,,0.00,WUHU21623XXSP,2013-06-04 16:20:00,
2013-06-04 12:25:00,86.9,67.2,30.07,WNW,292,0.0,0.0,52,0.00,,,0.00,WUHU21623XXSP,2013-06-04 16:25:00,
2013-06-04 12:30:00,87.1,66.8,30.07,WNW,292,0.0,0.0,51,0.00,,,0.00,WUHU21623XXSP,2013-06-04 16:30:00,
2013-06-04 12:35:00,86.7,66.5,30.07,WNW,292,0.0,0.0,51,0.00,,,0.00,WUHU21623XXSP,2013-06-04 16:35:00,
2013-06-04 12:40:00,86.7,67.5,30.07,WNW,292,0.0,0.0,53,0.00,,,0.00,WUHU21623XXSP,2013-06-04 16:40:00,
2013-06-04 12:45:00,87.3,66.4,30.07,WNW,292,0.0,0.0,50,0.00,,,0.00,WUHU21623XXSP,2013-06-04 16:45:00,
2013-06-04 12:50:00,87.6,67.3,30.07,WNW,292,0.0,0.0,51,0.00,,,0.00,WUHU21623XXSP,2013-06-04 16:50:00,
2013-06-04 12:55:00,87.6,67.3,30.07,WNW,292,0.0,0.0,51,0.00,,,0.00,WUHU21623XXSP,2013-06-04 16:55:00,
2013-06-04 13:00:00,86.5,66.3,30.07,ESE,112,0.0,0.0,51,0.00,,,0.00,WUHU21623XXSP,2013-06-04 17:00:00,
2013-06-04 13:05:00,85.6,65.5,30.07,ESE,112,0.0,0.0,51,0.00,,,0.00,WUHU21623XXSP,2013-06-04 17:05:00,
2013-06-04 13:10:00,85.8,66.0,30.07,East,90,0.0,0.0,50,0.00,,,0.00,WUHU21623XXSP,2013-06-04 17:10:00,
2013-06-04 13:15:00,86.2,65.5,30.07,East,90,0.0,0.0,50,0.00,,,0.00,WUHU21623XXSP,2013-06-04 17:15:00,
2013-06-04 13:20:00,86.2,65.5,30.07,East,90,0.0,0.0,50,0.00,,,0.00,WUHU21623XXSP,2013-06-04 17:20:00,
2013-06-04 13:25:00,86.5,66.3,30.07,East,90,0.0,0.0,51,0.00,,,0.00,WUHU21623XXSP,2013-06-04 17:25:00,
2013-06-04 13:30:00,87.1,65.6,30.07,East,90,0.0,0.0,49,0.00,,,0.00,WUHU21623XXSP,2013-06-04 17:30:00,
2013-06-04 13:35:00,87.6,65.3,30.07,East,90,0.0,0.0,49,0.00,,,0.00,WUHU21623XXSP,2013-06-04 17:35:00,
2013-06-04 13:44:00,87.8,66.3,30.07,NE,45,0.0,0.0,49,0.00,,,0.00,WUHU21623XXSP,2013-06-04 17:44:00,
2013-06-04 13:49:00,88.2,66.6,30.07,NE,45,0.0,0.0,49,0.00,,,0.00,WUHU21623XXSP,2013-06-04 17:49:00,
2013-06-04 13:54:00,88.5,66.3,30.07,NW,315,0.0,0.0,48,0.00,,,0.00,WUHU21623XXSP,2013-06-04 17:54:00,
2013-06-04 13:59:00,88.7,66.5,30.07,North,0,0.0,0.0,48,0.00,,,0.00,WUHU21623XXSP,2013-06-04 17:59:00,
2013-06-04 14:04:00,89.2,66.3,30.07,North,0,0.0,0.0,47,0.00,,,0.00,WUHU21623XXSP,2013-06-04 18:04:00,
2013-06-04 14:09:00,89.4,65.8,30.07,North,0,0.0,0.0,46,0.00,,,0.00,WUHU21623XXSP,2013-06-04 18:09:00,
2013-06-04 14:14:00,89.2,65.0,30.06,North,0,0.0,0.0,45,0.00,,,0.00,WUHU21623XXSP,2013-06-04 18:14:00,
2013-06-04 14:19:00,89.4,67.1,30.06,North,0,0.0,0.0,48,0.00,,,0.00,WUHU21623XXSP,2013-06-04 18:19:00,
2013-06-04 14:24:00,90.0,66.3,30.06,North,0,0.0,0.0,46,0.00,,,0.00,WUHU21623XXSP,2013-06-04 18:24:00,
2013-06-04 14:29:00,90.3,65.9,30.06,North,0,0.0,0.0,45,0.00,,,0.00,WUHU21623XXSP,2013-06-04 18:29:00,
2013-06-04 14:34:00,90.3,66.6,30.06,North,0,0.0,0.0,46,0.00,,,0.00,WUHU21623XXSP,2013-06-04 18:34:00,
2013-06-04 14:41:00,90.7,66.9,30.06,NNW,337,0.0,0.0,46,0.00,,,0.00,WUHU21623XXSP,2013-06-04 18:41:00,
2013-06-04 14:46:00,90.9,65.8,30.06,NNW,337,0.0,0.0,44,0.00,,,0.00,WUHU21623XXSP,2013-06-04 18:46:00,
2013-06-04 14:51:00,90.0,65.6,30.06,NNW,337,0.0,0.0,45,0.00,,,0.00,WUHU21623XXSP,2013-06-04 18:51:00,
2013-06-04 14:56:00,89.8,65.5,30.05,NW,315,0.0,0.0,45,0.00,,,0.00,WUHU21623XXSP,2013-06-04 18:56:00,
2013-06-04 15:01:00,90.1,66.3,30.05,WNW,292,0.0,0.0,47,0.00,,,0.00,WUHU21623XXSP,2013-06-04 19:01:00,
2013-06-04 15:06:00,90.7,66.3,30.05,WNW,292,0.0,0.0,45,0.00,,,0.00,WUHU21623XXSP,2013-06-04 19:06:00,
2013-06-04 15:12:00,91.0,66.6,30.05,WNW,292,0.0,0.0,45,0.00,,,0.00,WUHU21623XXSP,2013-06-04 19:12:00,
2013-06-04 15:17:00,91.4,67.6,30.05,WNW,292,0.0,0.0,46,0.00,,,0.00,WUHU21623XXSP,2013-06-04 19:17:00,
2013-06-04 15:22:00,91.8,67.2,30.04,WNW,292,0.0,0.0,45,0.00,,,0.00,WUHU21623XXSP,2013-06-04 19:22:00,
2013-06-04 15:27:00,91.9,66.1,30.04,NW,315,0.0,0.0,43,0.00,,,0.00,WUHU21623XXSP,2013-06-04 19:27:00,
2013-06-04 15:32:00,91.9,67.4,30.05,NNW,337,0.0,0.0,45,0.00,,,0.00,WUHU21623XXSP,2013-06-04 19:32:00,
2013-06-04 15:37:00,91.9,66.8,30.04,NNW,337,0.0,0.0,44,0.00,,,0.00,WUHU21623XXSP,2013-06-04 19:37:00,
2013-06-04 15:42:00,91.9,67.4,30.04,NNW,337,0.0,0.0,45,0.00,,,0.00,WUHU21623XXSP,2013-06-04 19:42:00,
2013-06-04 15:47:00,92.1,68.2,30.04,NNW,337,0.0,0.0,46,0.00,,,0.00,WUHU21623XXSP,2013-06-04 19:47:00,
2013-06-04 15:52:00,92.5,67.9,30.04,NNW,337,0.0,0.0,45,0.00,,,0.00,WUHU21623XXSP,2013-06-04 19:52:00,
2013-06-04 15:57:00,91.9,67.4,30.04,NNW,337,0.0,0.0,45,0.00,,,0.00,WUHU21623XXSP,2013-06-04 19:57:00,
2013-06-04 16:02:00,91.8,66.6,30.04,NNW,337,0.0,0.0,44,0.00,,,0.00,WUHU21623XXSP,2013-06-04 20:02:00,
2013-06-04 16:07:00,91.6,66.4,30.04,NNW,337,0.0,0.0,44,0.00,,,0.00,WUHU21623XXSP,2013-06-04 20:07:00,
2013-06-04 16:12:00,91.2,66.1,30.04,NNW,337,0.0,0.0,44,0.00,,,0.00,WUHU21623XXSP,2013-06-04 20:12:00,
2013-06-04 16:17:00,91.2,66.8,30.04,NNW,337,0.0,0.0,45,0.00,,,0.00,WUHU21623XXSP,2013-06-04 20:17:00,
2013-06-04 16:22:00,91.0,65.9,30.04,NNW,337,0.0,0.0,44,0.00,,,0.00,WUHU21623XXSP,2013-06-04 20:22:00,
2013-06-04 16:27:00,90.7,66.4,30.04,NNW,337,0.0,0.0,45,0.00,,,0.00,WUHU21623XXSP,2013-06-04 20:27:00,
2013-06-04 16:32:00,90.0,66.9,30.04,NNW,337,0.0,0.0,47,0.00,,,0.00,WUHU21623XXSP,2013-06-04 20:32:00,
2013-06-04 16:37:00,88.9,66.0,30.04,NNW,337,0.0,0.0,47,0.00,,,0.00,WUHU21623XXSP,2013-06-04 20:37:00,
2013-06-04 16:42:00,88.7,66.5,30.04,NNW,337,0.0,0.0,48,0.00,,,0.00,WUHU21623XXSP,2013-06-04 20:42:00,
2013-06-04 16:47:00,88.9,66.6,30.04,NNW,337,0.0,0.0,48,0.00,,,0.00,WUHU21623XXSP,2013-06-04 20:47:00,
2013-06-04 16:52:00,89.2,66.3,30.04,NNW,337,0.0,0.0,47,0.00,,,0.00,WUHU21623XXSP,2013-06-04 20:52:00,
2013-06-04 16:57:00,89.2,66.3,30.03,NW,315,0.0,0.0,47,0.00,,,0.00,WUHU21623XXSP,2013-06-04 20:57:00,
2013-06-04 17:02:00,89.4,67.1,30.04,NW,315,0.0,0.0,48,0.00,,,0.00,WUHU21623XXSP,2013-06-04 21:02:00,
2013-06-04 17:07:00,89.4,67.1,30.04,WNW,292,0.0,0.0,48,0.00,,,0.00,WUHU21623XXSP,2013-06-04 21:07:00,
2013-06-04 17:12:00,89.2,66.9,30.03,WNW,292,0.0,0.0,48,0.00,,,0.00,WUHU21623XXSP,2013-06-04 21:12:00,
2013-06-04 17:17:00,89.2,66.9,30.03,WNW,292,0.0,0.0,48,0.00,,,0.00,WUHU21623XXSP,2013-06-04 21:17:00,
2013-06-04 17:22:00,89.1,66.1,30.03,WNW,292,0.0,0.0,47,0.00,,,0.00,WUHU21623XXSP,2013-06-04 21:22:00,
2013-06-04 17:27:00,88.7,65.8,30.03,NW,315,0.0,0.0,47,0.00,,,0.00,WUHU21623XXSP,2013-06-04 21:27:00,
2013-06-04 17:32:00,88.5,65.6,30.03,NW,315,0.0,0.0,47,0.00,,,0.00,WUHU21623XXSP,2013-06-04 21:32:00,
2013-06-04 17:37:00,88.3,65.5,30.03,NW,315,0.0,0.0,48,0.00,,,0.00,WUHU21623XXSP,2013-06-04 21:37:00,
2013-06-04 17:42:00,88.0,65.8,30.03,NW,315,0.0,0.0,48,0.00,,,0.00,WUHU21623XXSP,2013-06-04 21:42:00,
2013-06-04 17:47:00,87.6,66.1,30.03,NW,315,0.0,0.0,49,0.00,,,0.00,WUHU21623XXSP,2013-06-04 21:47:00,
2013-06-04 17:52:00,87.3,66.0,30.03,NW,315,0.0,0.0,48,0.00,,,0.00,WUHU21623XXSP,2013-06-04 21:52:00,
2013-06-04 17:57:00,86.9,65.5,30.03,NW,315,0.0,0.0,49,0.00,,,0.00,WUHU21623XXSP,2013-06-04 21:57:00,
2013-06-04 18:02:00,86.7,65.9,30.03,NW,315,0.0,0.0,50,0.00,,,0.00,WUHU21623XXSP,2013-06-04 22:02:00,
2013-06-04 18:07:00,86.2,65.5,30.03,North,0,0.0,0.0,50,0.00,,,0.00,WUHU21623XXSP,2013-06-04 22:07:00,
2013-06-04 18:12:00,86.0,65.8,30.03,North,0,0.0,0.0,51,0.00,,,0.00,WUHU21623XXSP,2013-06-04 22:12:00,
2013-06-04 18:17:00,85.8,65.1,30.03,North,0,0.0,0.0,50,0.00,,,0.00,WUHU21623XXSP,2013-06-04 22:17:00,
2013-06-04 18:22:00,85.8,65.7,30.03,North,0,0.0,0.0,51,0.00,,,0.00,WUHU21623XXSP,2013-06-04 22:22:00,
2013-06-04 18:27:00,85.6,65.5,30.03,North,0,0.0,0.0,51,0.00,,,0.00,WUHU21623XXSP,2013-06-04 22:27:00,
2013-06-04 18:32:00,85.3,65.2,30.02,North,0,0.0,0.0,51,0.00,,,0.00,WUHU21623XXSP,2013-06-04 22:32:00,
2013-06-04 18:37:00,84.9,65.5,30.02,North,0,0.0,0.0,52,0.00,,,0.00,WUHU21623XXSP,2013-06-04 22:37:00,
2013-06-04 18:42:00,84.6,65.0,30.02,North,0,0.0,0.0,52,0.00,,,0.00,WUHU21623XXSP,2013-06-04 22:42:00,
2013-06-04 18:47:00,84.2,64.2,30.02,North,0,0.0,0.0,51,0.00,,,0.00,WUHU21623XXSP,2013-06-04 22:47:00,
2013-06-04 18:52:00,83.5,63.5,30.02,North,0,0.0,0.0,51,0.00,,,0.00,WUHU21623XXSP,2013-06-04 22:52:00,
2013-06-04 18:58:00,83.1,63.1,30.02,North,0,0.0,0.0,51,0.00,,,0.00,WUHU21623XXSP,2013-06-04 22:58:00,
2013-06-04 19:03:00,82.8,63.3,30.02,North,0,0.0,0.0,52,0.00,,,0.00,WUHU21623XXSP,2013-06-04 23:03:00,
2013-06-04 19:08:00,82.2,62.8,30.02,North,0,0.0,0.0,52,0.00,,,0.00,WUHU21623XXSP,2013-06-04 23:08:00,
2013-06-04 19:13:00,82.0,62.6,30.02,North,0,0.0,0.0,52,0.00,,,0.00,WUHU21623XXSP,2013-06-04 23:13:00,
2013-06-04 19:18:00,81.7,62.8,30.02,North,0,0.0,0.0,53,0.00,,,0.00,WUHU21623XXSP,2013-06-04 23:18:00,
2013-06-04 19:23:00,81.1,63.4,30.02,North,0,0.0,0.0,55,0.00,,,0.00,WUHU21623XXSP,2013-06-04 23:23:00,
2013-06-04 19:28:00,80.6,63.2,30.02,North,0,0.0,0.0,55,0.00,,,0.00,WUHU21623XXSP,2013-06-04 23:28:00,
2013-06-04 19:33:00,80.4,63.2,30.02,North,0,0.0,0.0,56,0.00,,,0.00,WUHU21623XXSP,2013-06-04 23:33:00,
2013-06-04 19:38:00,79.9,63.3,30.03,North,0,0.0,0.0,57,0.00,,,0.00,WUHU21623XXSP,2013-06-04 23:38:00,
2013-06-04 19:43:00,79.5,62.9,30.03,North,0,0.0,0.0,57,0.00,,,0.00,WUHU21623XXSP,2013-06-04 23:43:00,
2013-06-04 19:48:00,79.2,62.6,30.02,North,0,0.0,0.0,57,0.00,,,0.00,WUHU21623XXSP,2013-06-04 23:48:00,
2013-06-04 19:53:00,78.6,62.6,30.03,North,0,0.0,0.0,58,0.00,,,0.00,WUHU21623XXSP,2013-06-04 23:53:00,
2013-06-04 19:58:00,78.4,62.5,30.03,North,0,0.0,0.0,58,0.00,,,0.00,WUHU21623XXSP,2013-06-04 23:58:00,
2013-06-04 20:03:00,78.1,62.8,30.03,North,0,0.0,0.0,59,0.00,,,0.00,WUHU21623XXSP,2013-06-05 00:03:00,
2013-06-04 20:08:00,77.5,62.6,30.03,North,0,0.0,0.0,60,0.00,,,0.00,WUHU21623XXSP,2013-06-05 00:08:00,
2013-06-04 20:13:00,77.4,62.4,30.03,North,0,0.0,0.0,60,0.00,,,0.00,WUHU21623XXSP,2013-06-05 00:13:00,
2013-06-04 20:18:00,76.8,62.3,30.02,North,0,0.0,0.0,61,0.00,,,0.00,WUHU21623XXSP,2013-06-05 00:18:00,
2013-06-04 20:23:00,76.3,61.8,30.03,North,0,0.0,0.0,61,0.00,,,0.00,WUHU21623XXSP,2013-06-05 00:23:00,
2013-06-04 20:28:00,75.9,61.5,30.03,North,0,0.0,0.0,61,0.00,,,0.00,WUHU21623XXSP,2013-06-05 00:28:00,
2013-06-04 20:33:00,75.7,61.8,30.03,North,0,0.0,0.0,62,0.00,,,0.00,WUHU21623XXSP,2013-06-05 00:33:00,
2013-06-04 20:38:00,75.4,61.9,30.03,North,0,0.0,0.0,63,0.00,,,0.00,WUHU21623XXSP,2013-06-05 00:38:00,
2013-06-04 20:43:00,75.0,61.6,30.03,North,0,0.0,0.0,63,0.00,,,0.00,WUHU21623XXSP,2013-06-05 00:43:00,
2013-06-04 20:48:00,74.7,61.6,30.03,North,0,0.0,0.0,64,0.00,,,0.00,WUHU21623XXSP,2013-06-05 00:48:00,
2013-06-04 20:53:00,74.1,61.1,30.03,North,0,0.0,0.0,64,0.00,,,0.00,WUHU21623XXSP,2013-06-05 00:53:00,
2013-06-04 20:58:00,73.9,60.9,30.03,North,0,0.0,0.0,64,0.00,,,0.00,WUHU21623XXSP,2013-06-05 00:58:00,
2013-06-04 21:03:00,73.6,61.1,30.04,North,0,0.0,0.0,65,0.00,,,0.00,WUHU21623XXSP,2013-06-05 01:03:00,
2013-06-04 21:08:00,73.2,60.7,30.04,North,0,0.0,0.0,65,0.00,,,0.00,WUHU21623XXSP,2013-06-05 01:08:00,
2013-06-04 21:13:00,73.0,61.0,30.04,North,0,0.0,0.0,66,0.00,,,0.00,WUHU21623XXSP,2013-06-05 01:13:00,
2013-06-04 21:18:00,72.7,61.1,30.04,North,0,0.0,0.0,67,0.00,,,0.00,WUHU21623XXSP,2013-06-05 01:18:00,
2013-06-04 21:23:00,72.5,60.9,30.04,North,0,0.0,0.0,67,0.00,,,0.00,WUHU21623XXSP,2013-06-05 01:23:00,
2013-06-04 21:28:00,72.3,61.2,30.04,North,0,0.0,0.0,68,0.00,,,0.00,WUHU21623XXSP,2013-06-05 01:28:00,
2013-06-04 21:33:00,72.0,61.3,30.05,North,0,0.0,0.0,69,0.00,,,0.00,WUHU21623XXSP,2013-06-05 01:33:00,
2013-06-04 21:38:00,71.8,61.1,30.05,North,0,0.0,0.0,69,0.00,,,0.00,WUHU21623XXSP,2013-06-05 01:38:00,
2013-06-04 21:43:00,71.4,61.2,30.05,North,0,0.0,0.0,70,0.00,,,0.00,WUHU21623XXSP,2013-06-05 01:43:00,
2013-06-04 21:48:00,71.2,61.4,30.05,North,0,0.0,0.0,71,0.00,,,0.00,WUHU21623XXSP,2013-06-05 01:48:00,
2013-06-04 21:53:00,70.9,61.2,30.06,North,0,0.0,0.0,71,0.00,,,0.00,WUHU21623XXSP,2013-06-05 01:53:00,
2013-06-04 21:58:00,70.7,61.2,30.06,North,0,0.0,0.0,72,0.00,,,0.00,WUHU21623XXSP,2013-06-05 01:58:00,
2013-06-04 22:03:00,70.3,60.8,30.07,North,0,0.0,0.0,72,0.00,,,0.00,WUHU21623XXSP,2013-06-05 02:03:00,
2013-06-04 22:08:00,70.3,60.8,30.07,North,0,0.0,0.0,72,0.00,,,0.00,WUHU21623XXSP,2013-06-05 02:08:00,
2013-06-04 22:13:00,70.0,60.7,30.07,North,0,0.0,0.0,73,0.00,,,0.00,WUHU21623XXSP,2013-06-05 02:13:00,
2013-06-04 22:18:00,70.0,60.9,30.07,North,0,0.0,0.0,73,0.00,,,0.00,WUHU21623XXSP,2013-06-05 02:18:00,
2013-06-04 22:23:00,69.8,60.7,30.07,North,0,0.0,0.0,73,0.00,,,0.00,WUHU21623XXSP,2013-06-05 02:23:00,
2013-06-04 22:28:00,69.8,61.1,30.08,North,0,0.0,0.0,74,0.00,,,0.00,WUHU21623XXSP,2013-06-05 02:28:00,
2013-06-04 22:33:00,69.6,60.9,30.08,North,0,0.0,0.0,74,0.00,,,0.00,WUHU21623XXSP,2013-06-05 02:33:00,
2013-06-04 22:38:00,69.6,61.3,30.08,North,0,0.0,0.0,75,0.00,,,0.00,WUHU21623XXSP,2013-06-05 02:38:00,
2013-06-04 22:43:00,69.6,61.3,30.08,North,0,0.0,0.0,75,0.00,,,0.00,WUHU21623XXSP,2013-06-05 02:43:00,
2013-06-04 22:48:00,69.4,61.3,30.07,North,0,0.0,0.0,75,0.00,,,0.00,WUHU21623XXSP,2013-06-05 02:48:00,
2013-06-04 22:53:00,69.4,61.5,30.08,North,0,0.0,0.0,75,0.00,,,0.00,WUHU21623XXSP,2013-06-05 02:53:00,
2013-06-04 22:58:00,69.3,61.1,30.08,North,0,0.0,0.0,75,0.00,,,0.00,WUHU21623XXSP,2013-06-05 02:58:00,
2013-06-04 23:03:00,69.3,60.9,30.08,North,0,0.0,0.0,75,0.00,,,0.00,WUHU21623XXSP,2013-06-05 03:03:00,
2013-06-04 23:08:00,69.1,60.8,30.08,North,0,0.0,0.0,76,0.00,,,0.00,WUHU21623XXSP,2013-06-05 03:08:00,
2013-06-04 23:13:00,68.9,61.2,30.08,North,0,0.0,0.0,76,0.00,,,0.00,WUHU21623XXSP,2013-06-05 03:13:00,
2013-06-04 23:18:00,68.7,60.8,30.08,North,0,0.0,0.0,76,0.00,,,0.00,WUHU21623XXSP,2013-06-05 03:18:00,
2013-06-04 23:23:00,68.7,60.8,30.07,North,0,0.0,0.0,76,0.00,,,0.00,WUHU21623XXSP,2013-06-05 03:23:00,
2013-06-04 23:28:00,68.5,60.7,30.08,North,0,0.0,0.0,76,0.00,,,0.00,WUHU21623XXSP,2013-06-05 03:28:00,
2013-06-04 23:33:00,68.2,60.5,30.08,North,0,0.0,0.0,76,0.00,,,0.00,WUHU21623XXSP,2013-06-05 03:33:00,
2013-06-04 23:38:00,68.2,60.4,30.08,North,0,0.0,0.0,76,0.00,,,0.00,WUHU21623XXSP,2013-06-05 03:38:00,
2013-06-04 23:43:00,67.8,60.0,30.08,North,0,0.0,0.0,76,0.00,,,0.00,WUHU21623XXSP,2013-06-05 03:43:00,
2013-06-04 23:48:00,67.8,60.0,30.07,North,0,0.0,0.0,76,0.00,,,0.00,WUHU21623XXSP,2013-06-05 03:48:00,
2013-06-04 23:53:00,67.6,60.2,30.07,North,0,0.0,0.0,77,0.00,,,0.00,WUHU21623XXSP,2013-06-05 03:53:00,
2013-06-04 23:58:00,67.6,60.2,30.07,North,0,0.0,0.0,77,0.00,,,0.00,WUHU21623XXSP,2013-06-05 03:58:00,